Weather History for Marianna, FL

Change the Weather History Date:

Thursday, June 13, 2013

  Actual Average Record
Temperature  
Mean Temperature 86 °F 80 °F  
Max Temperature 96 °F 91 °F 105 °F (2011)
Min Temperature 76 °F 70 °F 68 °F (2007)
Degree Days  
Heating Degree Days 0    
Month to date heating degree days 0  
Since 1 June heating degree days 0  
Since 1 July heating degree days 1377  
Cooling Degree Days 21    
Month to date cooling degree days 202  
Year to date cooling degree days 638  
Since 1 June cooling degree days 202  
Growing Degree Days 36 (Base 50)    
Moisture  
Dew Point 73 °F    
Average Humidity 68    
Maximum Humidity 94    
Minimum Humidity 42    
Precipitation  
Precipitation 0.00 in 0.17 in 0.54 in (2003)
Month to date precipitation 2.06 2.29  
Year to date precipitation 22.96 24.51  
Sea Level Pressure  
Sea Level Pressure 29.93 in    
Wind  
Wind Speed 8 mph (West)    
Max Wind Speed 15 mph    
Max Gust Speed 18 mph    
Visibility 9 miles    
Events      
T = Trace of Precipitation, MM = Missing Value Source: NWS Daily Summary

Daily Weather History Graph

Daily Weather History Graph

Search for Another Location

Airport:

Trip Planner

Search our weather history database for the weather conditions in past years. The results will help you decide how hot, cold, wet, or windy it might be!

Date:

Astronomy

Jun. 13, 2013 Rise Set
Actual Time 5:37 AM CDT 7:44 PM CDT
Civil Twilight 5:09 AM CDT 8:12 PM CDT
Nautical Twilight 4:35 AM CDT 8:46 PM CDT
Astronomical Twilight 3:59 AM CDT 9:22 PM CDT
Moon 9:58 AM CDT (6/13) 11:08 PM CDT (6/13)
Length of Visible Light 15h 03m
Length of Day
14h 07m
Waxing Crescent, 22% of the Moon is Illuminated
Jun 13
Waxing Crescent
Jun 16
First Quarter
Jun 23
Full
Jun 29
Last Quarter
Jul 8
New

Hourly Weather History & Observations

Time (CDT) Temp. Heat Index Dew Point Humidity Pressure Visibility Wind Dir Wind Speed Gust Speed Precip Events Conditions
12:53 AM 79.0 °F - 75.9 °F 90% 29.99 in 8.0 mi WSW 4.6 mph - N/A   Clear
1:53 AM 78.1 °F - 75.9 °F 93% 29.98 in 7.0 mi WSW 4.6 mph - N/A   Clear
2:53 AM 78.1 °F - 75.9 °F 93% 29.97 in 7.0 mi West 4.6 mph - N/A   Clear
3:53 AM 77.0 °F - 75.0 °F 94% 29.97 in 8.0 mi West 4.6 mph - N/A   Clear
4:53 AM 77.0 °F - 75.0 °F 94% 29.98 in 8.0 mi West 4.6 mph - N/A   Clear
5:53 AM 75.9 °F - 73.9 °F 94% 29.99 in 6.0 mi West 4.6 mph - N/A   Clear
6:53 AM 77.0 °F - 73.9 °F 90% 30.00 in 8.0 mi West 4.6 mph - N/A   Clear
7:53 AM 81.0 °F 86.2 °F 73.9 °F 79% 30.01 in 10.0 mi WNW 5.8 mph - N/A   Clear
8:53 AM 86.0 °F 95.1 °F 75.0 °F 70% 30.01 in 10.0 mi WNW 4.6 mph - N/A   Clear
9:53 AM 89.1 °F 98.0 °F 73.9 °F 61% 29.99 in 10.0 mi WNW 5.8 mph - N/A   Clear
10:53 AM 91.0 °F 99.3 °F 73.0 °F 55% 29.99 in 10.0 mi WNW 6.9 mph - N/A   Clear
11:53 AM 93.0 °F 101.9 °F 73.0 °F 52% 29.97 in 10.0 mi WNW 9.2 mph - N/A   Partly Cloudy
12:53 PM 93.9 °F 100.3 °F 70.0 °F 46% 29.95 in 10.0 mi West 13.8 mph 18.4 mph N/A   Partly Cloudy
1:53 PM 95.0 °F 102.5 °F 71.1 °F 46% 29.92 in 10.0 mi West 11.5 mph 18.4 mph N/A   Clear
2:53 PM 96.1 °F 102.9 °F 70.0 °F 43% 29.89 in 10.0 mi WNW 12.7 mph - N/A   Clear
3:53 PM 96.1 °F 101.6 °F 69.1 °F 41% 29.87 in 10.0 mi NW 11.5 mph - N/A   Clear
4:53 PM 95.0 °F 100.7 °F 69.1 °F 43% 29.86 in 10.0 mi West 12.7 mph - N/A   Clear
5:53 PM 91.0 °F 100.4 °F 73.9 °F 57% 29.84 in 10.0 mi WSW 12.7 mph - N/A   Clear
6:53 PM 89.1 °F 97.0 °F 73.0 °F 59% 29.85 in 10.0 mi WSW 10.4 mph - N/A   Clear
7:53 PM 84.9 °F 91.4 °F 73.0 °F 67% 29.86 in 10.0 mi SW 9.2 mph - N/A   Clear
8:53 PM 82.9 °F 87.5 °F 71.1 °F 67% 29.88 in 10.0 mi SW 9.2 mph - N/A   Clear
9:53 PM 81.0 °F 85.2 °F 72.0 °F 74% 29.87 in 10.0 mi SSW 9.2 mph - N/A   Clear
10:53 PM 80.1 °F 84.2 °F 73.0 °F 79% 29.88 in 10.0 mi SSW 6.9 mph - N/A   Clear
11:53 PM 80.1 °F 84.2 °F 73.0 °F 79% 29.88 in 10.0 mi SSW 6.9 mph - N/A   Clear